Regional Weather Roundup
Issued by NWS

Home | Current Version | Previous Version | Graphics & Text | Print | Product List | Glossary On
Versions: 1 2 3 4 5 6 7 8 9 10 11 12 13 14 15 16 17 18 19 20 21 22 23 24 25 26 27 28 29 30 31 32 33 34 35 36 37 38 39 40 41 42 43 44 45 46 47 48 49 50
000
ASUS43 KTOP 260708
RWRKS

WEATHER ROUNDUP FOR KANSAS
NATIONAL WEATHER SERVICE GOODLAND KS
100 AM CST SUN FEB 26 2017

NOTE:  "FAIR" INDICATES FEW OR NO CLOUDS BELOW 12,000 FEET WITH NO
SIGNIFICANT WEATHER AND/OR OBSTRUCTIONS TO VISIBILITY.

KSZ001>006-013>018-027>032-041>047-260800-
NORTHWEST KANSAS

CITY           SKY/WX    TMP DP  RH WIND       PRES   REMARKS
GOODLAND       CLOUDY    17   9  70 CALM      29.84F
HAYS           CLOUDY    30  15  53 E5        29.91F
HILL CITY      CLOUDY    29  15  56 N7        29.91F
RUSSELL        PTCLDY    32  15  49 SW5       29.91F
$$

KSZ061>065-074>080-084>089-260800-
SOUTHWEST KANSAS

CITY           SKY/WX    TMP DP  RH WIND       PRES   REMARKS
DODGE CITY     PTCLDY    32  15  49 S15       29.87S WCI  22
ELKHART          N/A     29   6  38 NW5         N/A
GARDEN CITY    CLEAR     30  14  51 SE10      29.83F WCI  21
GREAT BEND     CLOUDY    36  16  44 S9        29.92S
LIBERAL        CLOUDY    37  18  44 S8        29.80S
PRATT          CLOUDY    33  14  45 S15       29.91F WCI  23
$$

KSZ066>073-081>083-090>101-260800-
SOUTHEAST KANSAS

CITY           SKY/WX    TMP DP  RH WIND       PRES   REMARKS
CHANUTE        PTCLDY    30  17  58 SE8       30.03F
COFFEYVILLE    PTCLDY    32  16  51 S6        30.06F
HUTCHINSON     CLOUDY    34  19  54 SE8       29.95F
MEDICINE LODGE   N/A     34  17  50 SE8       29.91F
NEWTON         CLOUDY    34  17  50 S12       29.97S WCI  25
PARSONS        PTCLDY    32  16  51 SE5       30.05F
WICHITA INTL   CLOUDY    34  19  54 SE9       29.96F
WICHITA JABRA  CLOUDY    34  19  54 SE10      29.97F WCI  26
WICHITA MCCONL CLOUDY    34  17  50 S10       29.96F WCI  26
WINFIELD       CLOUDY    35  19  52 SE7       29.99F
$$

KSZ007>012-019>026-033>040-048>060-102>105-260800-
NORTHEAST KANSAS

CITY           SKY/WX    TMP DP  RH WIND       PRES   REMARKS
CONCORDIA      CLOUDY    36  16  44 SW13      29.94S WCI  27
EMPORIA        PTCLDY    31  15  52 S15       29.98S WCI  20
LAWRENCE       CLEAR     34  15  46 S9        30.00S
MANHATTAN      PTCLDY    34  18  52 W7        29.98R
MARYSVILLE     PTCLDY    32  19  59 SW9       29.94S
OLATHE IND     CLEAR     30  14  51 S10       30.00F WCI  21
OLATHE EXE     CLEAR     31  14  49 S9        29.99F
SALINA         CLOUDY    38  17  42 S14       29.95F WCI  30
TOPEKA BILLARD CLEAR     33  16  49 S5        29.98S
TOPEKA FORBES  CLEAR     33  15  47 S12       29.98R WCI  24
$$



USA.gov is the U.S. government's official web portal to all federal, state and local government web resources and services.